Volver al catálogo

COSMOS 2251 DEB

ActivoLEO
NORAD 35650·DEBRIS·🇷🇺 Russia

Lanzado Jun 16, 1993 desde Plesetsk Cosmodrome

Loading…

Próximos Pases (próximas 24 horas)

TLE

ActualizadoSource: Space-Track

Época: Sep 14, 2026, 06:46 UTC

1 35650U 93036ANR 26257.28214330  .00009085  00000-0  91202-3 0  9994
2 35650  74.0437 189.5270 0016078 189.3603 326.6689 14.91310055917321

Sigue COSMOS 2251 DEB en tiempo real con AllMySat

Download on the App Store